[[{"header":{"parameterUnit":"m.s-1","parameterCategory":1,"la1":30.2991,"la2":30.254,"lo1":-89.0895,"lo2":-89.0444,"dy":0.0017,"dx":0.0017,"nx":28,"ny":28,"refTime":"2023-08-24T21:00:00:Z","depth":0,"parameterNumber":2,"parameterNumberName":"U-component_of_WINDS"},"data":[0,0,0,0,0,0,0,0,0,0,0,0,0,0,0,0,0,0,0,0,0,0,0,0,0,0,0,0,0,0,0,0,0,0,0,0,0,0,0,0,0,0,0,0,0,0,0,0,0,0,0,0,0,0,0,0,0,0,-0.3892,-0.389,0,-0.3711,-0.3709,-0.3707,-0.3613,-0.3613,-0.3613,-0.3612,-0.3424,-0.342,-0.3415,0,0,0,0,0,0,0,0,0,0,0,0,0,-0.4155,-0.4151,-0.3892,-0.389,-0.3887,-0.3712,-0.3709,-0.3707,-0.3613,-0.3613,-0.3612,-0.3612,-0.3426,-0.342,-0.3414,0,0,0,0,0,0,0,0,0,0,0,0,0,-0.4014,-0.4149,-0.3892,-0.382,-0.3811,-0.3712,-0.3709,-0.3706,-0.3613,-0.3613,-0.3612,-0.3612,-0.3428,-0.3421,-0.3414,-0.3372,0,0,-0.3391,-0.3388,0,0,0,0,0,0,0,0,-0.4022,-0.4005,-0.3832,-0.3824,-0.3815,-0.3684,-0.3733,-0.3594,-0.3613,-0.3688,-0.3612,-0.3612,-0.3511,-0.3497,-0.3463,-0.3363,-0.3355,-0.3391,-0.3386,-0.3383,-0.3381,0,0,0,0,0,0,0,-0.4032,-0.4012,-0.382,-0.383,-0.3819,-0.3796,-0.3776,-0.3706,-0.3603,-0.3681,-0.3674,-0.3654,-0.3506,-0.3471,-0.3458,-0.3353,-0.3391,-0.3384,-0.338,-0.3377,-0.3212,-0.3212,0,0,0,0,0,0,-0.4054,-0.4021,-0.3826,-0.3815,-0.392,-0.3791,-0.3769,-0.3726,-0.3603,-0.3584,-0.3655,-0.3651,-0.3483,-0.3467,-0.3451,-0.3396,-0.3383,-0.3376,-0.3372,-0.3212,-0.3212,-0.3212,0,0,0,0,0,0,-0.406,-0.4038,-0.3833,-0.3916,-0.3888,-0.3787,-0.374,-0.3723,-0.3687,-0.3583,-0.3564,-0.3637,-0.3482,-0.3461,-0.3393,-0.3388,-0.3373,-0.3366,-0.3212,-0.3212,-0.3212,-0.3285,0,0,0,0,0,0,-0.4068,-0.404,-0.4023,-0.3916,-0.3884,-0.3779,-0.374,-0.372,-0.3675,-0.3668,-0.3562,-0.3544,-0.3481,-0.3405,-0.3386,-0.3378,-0.3361,-0.3212,-0.3212,-0.3212,-0.3282,-0.3287,-0.3292,0,0,0,0,0,-0.4078,-0.405,-0.4023,-0.4,-0.3861,-0.3779,-0.376,-0.3689,-0.3675,-0.3658,-0.3591,-0.3547,-0.3392,-0.3399,-0.3377,-0.3366,-0.3212,-0.3212,-0.3212,-0.328,-0.3286,-0.3291,0,0,0,0,0,0,-0.4157,-0.4034,-0.4003,-0.394,-0.3871,-0.3763,-0.3738,-0.3697,-0.363,-0.3626,-0.3539,-0.3516,-0.3457,-0.3404,-0.3414,-0.3321,-0.3298,-0.3294,-0.3357,-0.3362,-0.3366,-0.338,-0.3354,0,0,0,0,0,-0.4168,-0.4112,-0.4007,-0.3961,-0.3929,-0.384,-0.3801,-0.3753,-0.3677,-0.3647,-0.3575,-0.3503,-0.3438,-0.3397,-0.3331,-0.3275,-0.3251,-0.3257,-0.3262,-0.3266,-0.3263,-0.3231,-0.3233,-0.3213,-0.3213,-0.3213,0,0,-0.4188,-0.4114,-0.4084,-0.3976,-0.3916,-0.3861,-0.3816,-0.3758,-0.3716,-0.3638,-0.357,-0.3515,-0.3429,-0.3368,-0.3336,-0.3322,-0.3264,-0.3266,-0.327,-0.3265,-0.3231,-0.3234,-0.3235,-0.3213,-0.3213,-0.3213,0,0,-0.4197,-0.4135,-0.4091,-0.4033,-0.3945,-0.3887,-0.3877,-0.3776,-0.3737,-0.3668,-0.3609,-0.3558,-0.3447,-0.3389,-0.3345,-0.3336,-0.3293,-0.3317,-0.334,-0.331,-0.3312,-0.3313,-0.3311,-0.3311,-0.3314,-0.3314,-0.3315,0,-0.4233,-0.4147,-0.4073,-0.402,-0.3975,-0.3904,-0.3859,-0.3807,-0.3701,-0.3672,-0.3657,-0.3519,-0.3456,-0.3381,-0.3379,-0.3345,-0.3332,-0.3328,-0.3318,-0.3318,-0.3318,-0.3315,-0.3314,-0.3318,-0.3318,-0.3317,-0.3317,0,-0.4196,-0.4138,-0.4113,-0.4015,-0.3967,-0.3918,-0.3838,-0.3798,-0.3755,-0.3698,-0.363,-0.3552,-0.3471,-0.3449,-0.3405,-0.3368,-0.3363,-0.3334,-0.3309,-0.3325,-0.332,-0.3318,-0.3323,-0.3322,-0.3321,-0.332,0,0,-0.4247,-0.4112,-0.4104,-0.406,-0.3959,-0.3912,-0.3861,-0.3783,-0.3751,-0.3682,-0.3637,-0.3547,-0.3521,-0.3472,-0.3421,-0.3395,-0.3394,-0.3369,-0.3366,-0.3377,-0.3351,-0.3373,-0.3373,-0.3366,-0.3366,-0.3365,-0.3358,0,-0.4242,-0.4147,-0.4081,-0.4012,-0.3958,-0.3892,-0.3848,-0.3782,-0.3728,-0.3675,-0.3615,-0.3554,-0.3524,-0.3494,-0.3465,-0.3401,-0.3388,-0.34,-0.3324,-0.3322,-0.3348,-0.337,-0.3392,-0.3389,-0.3356,-0.3355,-0.3355,0,-0.4222,-0.4157,-0.4084,-0.3991,-0.3966,-0.3927,-0.3852,-0.3801,-0.3725,-0.3689,-0.3635,-0.3584,-0.3528,-0.3509,-0.3431,-0.3441,-0.3406,-0.3371,-0.3369,-0.3358,-0.3339,-0.3361,-0.3386,-0.3386,-0.3352,-0.3352,-0.3352,0,-0.4268,-0.4162,-0.4105,-0.4069,-0.3959,-0.3934,-0.3887,-0.3811,-0.3769,-0.3703,-0.3676,-0.3604,-0.3564,-0.351,-0.3441,-0.3434,-0.3371,-0.3346,-0.3339,-0.3341,-0.3328,-0.333,-0.3349,-0.3306,-0.3306,-0.3306,-0.3306,0,-0.4269,-0.4227,-0.4124,-0.4089,-0.4041,-0.3966,-0.392,-0.3867,-0.3801,-0.3754,-0.3693,-0.3651,-0.3562,-0.351,-0.3456,-0.34,-0.3383,-0.3352,-0.3338,-0.3357,-0.3361,-0.3333,-0.3331,-0.3306,-0.3306,-0.3306,-0.3306,0,-0.4311,-0.4241,-0.4174,-0.4077,-0.4052,-0.4021,-0.3937,-0.3901,-0.3846,-0.3789,-0.3771,-0.3684,-0.3619,-0.3546,-0.3456,-0.342,-0.3368,-0.3348,-0.3395,-0.3387,-0.3384,-0.3386,-0.3385,-0.3382,-0.3342,-0.3343,-0.3343,0,-0.4316,-0.4282,-0.4183,-0.4148,-0.4104,-0.4048,-0.4006,-0.3932,-0.3891,-0.3804,-0.3779,-0.371,-0.365,-0.355,-0.3479,-0.3411,-0.3388,-0.3393,-0.3377,-0.3399,-0.3389,-0.3392,-0.3389,-0.3397,-0.3398,-0.3399,-0.3399,0,-0.4332,-0.43,-0.4242,-0.4174,-0.4126,-0.4067,-0.4006,-0.3982,-0.3896,-0.3853,-0.3787,-0.3741,-0.3652,-0.3584,-0.3508,-0.3459,-0.3416,-0.3406,-0.34,-0.342,-0.3448,-0.3434,-0.3407,-0.3405,-0.3405,-0.3404,-0.3404,-0.3404,-0.4356,-0.4324,-0.425,-0.4188,-0.4136,-0.4081,-0.4043,-0.3985,-0.3929,-0.3851,-0.3811,-0.3746,-0.3673,-0.3567,-0.352,-0.3468,-0.3454,-0.3446,-0.3444,-0.3443,-0.345,-0.3458,-0.3454,-0.3454,-0.3453,-0.3453,-0.3453,0,-0.437,-0.432,-0.4264,-0.4182,-0.4135,-0.41,-0.4031,-0.3994,-0.3938,-0.3874,-0.3819,-0.3744,-0.368,-0.3605,-0.3536,-0.3509,-0.3488,-0.3493,-0.3495,-0.3484,-0.3466,-0.3478,-0.3512,-0.3512,-0.3512,-0.3512,-0.3512,-0.3512,-0.4371,-0.4316,-0.4276,-0.4195,-0.4144,-0.4082,-0.4046,-0.3996,-0.3945,-0.3866,-0.3812,-0.3765,-0.3697,-0.3623,-0.3563,-0.3543,-0.352,-0.3533,-0.3507,-0.349,-0.3485,-0.3481,-0.3491,-0.3528,-0.3528,-0.3529,-0.3529,-0.3529]},{"header":{"parameterUnit":"m.s-1","parameterCategory":1,"la1":30.2991,"la2":30.254,"lo1":-89.0895,"lo2":-89.0444,"dy":0.0017,"dx":0.0017,"nx":28,"ny":28,"refTime":"2023-08-24T21:00:00:Z","depth":0,"parameterNumber":3,"parameterNumberName":"V-component_of_WINDS"},"data":[0,0,0,0,0,0,0,0,0,0,0,0,0,0,0,0,0,0,0,0,0,0,0,0,0,0,0,0,0,0,0,0,0,0,0,0,0,0,0,0,0,0,0,0,0,0,0,0,0,0,0,0,0,0,0,0,0,0,3.8353,3.8353,0,3.8326,3.8326,3.8325,3.8354,3.8355,3.8357,3.8358,3.8323,3.8321,3.8319,0,0,0,0,0,0,0,0,0,0,0,0,0,3.8423,3.8421,3.8353,3.8353,3.8352,3.8326,3.8326,3.8325,3.8354,3.8356,3.8357,3.8358,3.8323,3.8321,3.8319,0,0,0,0,0,0,0,0,0,0,0,0,0,3.8394,3.8421,3.8353,3.8364,3.8364,3.8326,3.8326,3.8325,3.8354,3.8356,3.8357,3.8359,3.8324,3.8321,3.8318,3.8266,0,0,3.8309,3.8308,0,0,0,0,0,0,0,0,3.8395,3.8391,3.8362,3.8363,3.8364,3.8345,3.8338,3.8305,3.8353,3.8358,3.8358,3.836,3.8328,3.8325,3.8316,3.8264,3.8263,3.8309,3.8307,3.8306,3.8305,0,0,0,0,0,0,0,3.8397,3.8392,3.8342,3.8362,3.8363,3.8368,3.8365,3.8332,3.8333,3.8357,3.8359,3.8356,3.8329,3.8319,3.8315,3.8262,3.8309,3.8306,3.8304,3.8303,3.8165,3.8163,0,0,0,0,0,0,3.8399,3.8394,3.8343,3.8341,3.8384,3.8365,3.8363,3.8349,3.8334,3.8333,3.8355,3.8358,3.8323,3.8319,3.8314,3.8251,3.8306,3.8303,3.8301,3.8167,3.8165,3.8163,0,0,0,0,0,0,3.84,3.8394,3.8344,3.8368,3.8362,3.8362,3.8347,3.8348,3.8338,3.8332,3.8332,3.8345,3.8324,3.8319,3.8278,3.825,3.8302,3.8299,3.8169,3.8166,3.8164,3.8125,0,0,0,0,0,0,3.8402,3.8395,3.8376,3.8368,3.8361,3.831,3.8345,3.8346,3.8334,3.8337,3.8323,3.8322,3.8325,3.8282,3.8275,3.8247,3.8297,3.8172,3.8168,3.8165,3.8129,3.8121,3.8115,0,0,0,0,0,3.8405,3.8365,3.8375,3.8369,3.8338,3.8308,3.8304,3.8311,3.8331,3.8312,3.8308,3.8322,3.8255,3.8278,3.827,3.8241,3.8173,3.8169,3.8165,3.8132,3.8123,3.8115,0,0,0,0,0,0,3.8367,3.8364,3.8375,3.8331,3.832,3.8313,3.8289,3.8301,3.8282,3.8286,3.8293,3.829,3.8247,3.824,3.8265,3.8189,3.8217,3.8211,3.8195,3.8186,3.8179,3.818,3.8294,0,0,0,0,0,3.8354,3.8332,3.833,3.8291,3.8286,3.8288,3.8275,3.8282,3.827,3.8264,3.8258,3.8243,3.8219,3.8202,3.818,3.8129,3.8125,3.8105,3.8098,3.8092,3.8086,3.8057,3.8048,3.8149,3.8149,3.8149,0,0,3.8326,3.8322,3.8307,3.8284,3.8276,3.8251,3.8284,3.8256,3.8237,3.8259,3.8221,3.8216,3.82,3.8154,3.8133,3.8147,3.8058,3.8087,3.8082,3.8079,3.8052,3.8042,3.8034,3.8146,3.8147,3.8147,0,0,3.8262,3.8257,3.8225,3.8217,3.8206,3.8208,3.82,3.8192,3.819,3.8152,3.8168,3.8145,3.8103,3.8091,3.808,3.8013,3.8025,3.8006,3.7968,3.794,3.7932,3.7925,3.79,3.7891,3.8,3.8,3.8,0,3.8227,3.8193,3.8206,3.8177,3.8166,3.8188,3.8154,3.8145,3.8126,3.8116,3.8133,3.8082,3.8073,3.8024,3.8008,3.7998,3.7988,3.8006,3.7933,3.7926,3.7919,3.7895,3.7886,3.7997,3.7998,3.7998,3.7998,0,3.8151,3.8127,3.8101,3.8085,3.8071,3.804,3.8046,3.803,3.8038,3.8038,3.7999,3.799,3.7965,3.7955,3.7962,3.7906,3.7915,3.7932,3.796,3.7907,3.7884,3.7875,3.7994,3.7995,3.7996,3.7996,0,0,3.8059,3.8053,3.8043,3.8036,3.8026,3.8006,3.7976,3.7955,3.794,3.7926,3.7899,3.7865,3.7881,3.7868,3.7874,3.7849,3.7796,3.7869,3.7869,3.7854,3.7732,3.7718,3.7707,3.7804,3.7803,3.7801,3.7733,0,3.7994,3.7944,3.7955,3.7904,3.7881,3.7903,3.7876,3.7866,3.7865,3.7844,3.7843,3.7817,3.7841,3.7833,3.7811,3.7807,3.7771,3.7812,3.7777,3.7775,3.7778,3.7696,3.768,3.7616,3.7724,3.7723,3.7722,0,3.7911,3.7897,3.7845,3.7839,3.783,3.7806,3.7787,3.7768,3.7756,3.7757,3.7744,3.7754,3.7722,3.7753,3.7707,3.7735,3.7721,3.7717,3.7715,3.771,3.7743,3.7686,3.7596,3.7585,3.7708,3.7709,3.771,0,3.7847,3.7816,3.778,3.7774,3.7766,3.7749,3.7744,3.7735,3.7722,3.7705,3.7696,3.7675,3.7663,3.7645,3.7649,3.7672,3.7602,3.7633,3.76,3.7599,3.7582,3.7582,3.7486,3.7577,3.7577,3.7577,3.7577,0,3.7772,3.7739,3.7752,3.7729,3.7692,3.7705,3.7667,3.7665,3.7657,3.7633,3.7651,3.7627,3.7636,3.7612,3.7615,3.7576,3.757,3.7569,3.7569,3.7566,3.7566,3.7555,3.7559,3.7575,3.7575,3.7576,3.7576,0,3.7694,3.7702,3.7664,3.7662,3.766,3.7633,3.7629,3.7607,3.761,3.7579,3.7573,3.7574,3.7548,3.7552,3.7521,3.7523,3.7474,3.7481,3.7478,3.7479,3.7445,3.7447,3.7336,3.7321,3.7424,3.7423,3.7422,0,3.7644,3.7619,3.7615,3.7602,3.7597,3.7575,3.7562,3.7574,3.7559,3.7545,3.7525,3.7501,3.7482,3.7438,3.7435,3.7412,3.7418,3.738,3.7414,3.7411,3.7415,3.7415,3.7412,3.7373,3.7372,3.7371,3.737,0,3.7555,3.756,3.7543,3.7526,3.7511,3.7498,3.7487,3.7474,3.7485,3.7467,3.7442,3.7428,3.7399,3.7374,3.7352,3.7345,3.7358,3.736,3.7351,3.7345,3.7344,3.7343,3.7458,3.7362,3.7362,3.7363,3.7364,3.7364,3.7488,3.7467,3.7461,3.744,3.7434,3.7423,3.7402,3.7403,3.7383,3.7362,3.7369,3.734,3.7329,3.7302,3.7293,3.7269,3.7282,3.7269,3.7265,3.7261,3.7257,3.7351,3.7265,3.7266,3.7266,3.7266,3.7266,0,3.7398,3.7396,3.7377,3.7362,3.7345,3.7363,3.7351,3.7336,3.7311,3.7301,3.7283,3.7253,3.7229,3.7226,3.7203,3.7184,3.7189,3.7177,3.7177,3.7175,3.7247,3.7257,3.7173,3.7173,3.7173,3.7173,3.7173,3.7173,3.7349,3.7314,3.7319,3.728,3.7278,3.7251,3.7243,3.7232,3.7225,3.7192,3.7173,3.7172,3.7164,3.7141,3.7119,3.7118,3.7108,3.7093,3.7094,3.7161,3.717,3.7179,3.7188,3.7091,3.7091,3.7024,3.7024,3.7023]}]]